Location: Unspecified
(48.7670°N, 0.0000°E)
Time: 16:45:46
(UTC+00:00)

S-56A Canister/Altair - Pass Details

Date: 30 October 2019
Orbit: 634 x 2498 km, 38.9° (Epoch: 13 November)

Event Time Altitude Azimuth Distance (km) Brightness Sun altitude
Exits shadow 04:56:57 16° 229° (SW) 2,528 9.7 -17.9°
Maximum altitude 04:59:39 20° 202° (SSW) 2,527 9.9 -17.5°
Drops below altitude 10° 05:05:44 10° 161° (SSE) 3,714 11.3 -16.5°
Sets 05:10:31 0° 147° (SSE) 5,079 12.3 -15.7°
